Weather History for PAAK - December, 2012

Change the Weather History Date:

Tuesday, December 4, 2012

  Actual Average (PADK) Record (PADK)
Temperature  
Mean Temperature 37 °F -  
Max Temperature 39 °F 38 °F 48 °F (1950)
Min Temperature 35 °F 29 °F 15 °F (1969)
Degree Days  
Heating Degree Days 28    
Moisture  
Dew Point -12 °F    
Average Humidity 12    
Maximum Humidity 13    
Minimum Humidity 11    
Precipitation  
Precipitation 0.00 in - - ()
Sea Level Pressure  
Sea Level Pressure 29.92 in    
Wind  
Wind Speed 7 mph (ESE)    
Max Wind Speed 12 mph    
Max Gust Speed -    
Visibility 8 miles    
Events      
Averages and records for this station are not official NWS values.
T = Trace of Precipitation, MM = Missing Value Source: NWS Daily Summary

Daily Weather History Graph

Daily Weather History Graph

Search for Another Location

Airport or City:

Trip Planner

Search our weather history database for the weather conditions in past years. The results will help you decide how hot, cold, wet, or windy it might be!

Date:

Astronomy

Dec. 04, 2012 Rise Set
Actual Time 9:28 AM HAST 5:25 PM HAST
Civil Twilight 8:48 AM HAST 6:06 PM HAST
Nautical Twilight 8:04 AM HAST 6:49 PM HAST
Astronomical Twilight 7:23 AM HAST 7:30 PM HAST
Moon No Moon Rise 1:00 PM HAST (12/4)
Length of Visible Light 9h 17m
Length of Day
7h 57m
Waning Gibbous, 67% of the Moon is Illuminated
Dec 4
Waning Gibbous
Dec 6
Last Quarter
Dec 12
New
Dec 19
First Quarter
Dec 28
Full

Hourly Weather History & Observations

Time (HAST) Temp. Windchill Dew Point Humidity Pressure Visibility Wind Dir Wind Speed Gust Speed Precip Events Conditions
12:16 AM 35.6 °F 30.7 °F -13.0 °F 12% 30.09 in 10.0 mi ESE 5.8 mph - N/A   Overcast
12:36 AM 35.6 °F 29.9 °F -13.0 °F 12% 30.08 in 10.0 mi SE 6.9 mph - N/A   Overcast
12:56 AM 35.6 °F 28.6 °F -13.0 °F 12% 30.08 in 10.0 mi ESE 9.2 mph - N/A   Overcast
1:16 AM 35.6 °F 28.0 °F -13.0 °F 12% 30.07 in 10.0 mi ESE 10.4 mph - N/A   Overcast
1:36 AM 35.6 °F 28.0 °F -11.2 °F 13% 30.06 in 10.0 mi ESE 10.4 mph - N/A   Overcast
1:56 AM 35.6 °F 28.6 °F -11.2 °F 13% 30.06 in 9.0 mi ESE 9.2 mph - N/A   Overcast
2:16 AM 35.6 °F 28.6 °F -11.2 °F 13% 30.05 in 10.0 mi ESE 9.2 mph - N/A   Overcast
2:36 AM 35.6 °F 27.5 °F -11.2 °F 13% 30.04 in 10.0 mi SE 11.5 mph - N/A   Overcast
2:56 AM 35.6 °F 27.5 °F -11.2 °F 13% 30.03 in 10.0 mi ESE 11.5 mph - N/A   Overcast
3:16 AM 35.6 °F 28.6 °F -11.2 °F 13% 30.03 in 9.0 mi SE 9.2 mph - N/A   Overcast
3:36 AM 35.6 °F 28.6 °F -13.0 °F 12% 30.02 in 10.0 mi SE 9.2 mph - N/A   Overcast
3:56 AM 35.6 °F 29.9 °F -13.0 °F 12% 30.02 in 10.0 mi ESE 6.9 mph - N/A   Overcast
4:16 AM 35.6 °F 29.2 °F -13.0 °F 12% 30.01 in 10.0 mi ESE 8.1 mph - N/A   Overcast
4:36 AM 35.6 °F 29.9 °F -13.0 °F 12% 30.00 in 10.0 mi SE 6.9 mph - N/A   Overcast
4:56 AM 35.6 °F 29.9 °F -13.0 °F 12% 29.99 in 10.0 mi East 6.9 mph - N/A   Overcast
5:16 AM 35.6 °F 29.9 °F -13.0 °F 12% 29.99 in 9.0 mi ESE 6.9 mph - N/A   Overcast
5:36 AM 35.6 °F 29.9 °F -13.0 °F 12% 29.98 in 10.0 mi East 6.9 mph - N/A   Overcast
5:56 AM 35.6 °F 29.9 °F -13.0 °F 12% 29.97 in 10.0 mi ESE 6.9 mph - N/A   Overcast
6:16 AM 35.6 °F 31.7 °F -13.0 °F 12% 29.96 in 7.0 mi East 4.6 mph - N/A   Overcast
6:36 AM 35.6 °F 29.9 °F -13.0 °F 12% 29.95 in 10.0 mi ENE 6.9 mph - N/A   Overcast
6:56 AM 35.6 °F 29.9 °F -13.0 °F 12% 29.95 in 8.0 mi ENE 6.9 mph - N/A   Overcast
7:16 AM 35.6 °F 29.9 °F -13.0 °F 12% 29.95 in 4.0 mi ENE 6.9 mph - N/A   Overcast
7:36 AM 35.6 °F 29.9 °F -13.0 °F 12% 29.94 in 3.0 mi ENE 6.9 mph - N/A   Overcast
7:56 AM 35.6 °F 32.8 °F -13.0 °F 12% 29.94 in 2.5 mi ENE 3.5 mph - N/A   Overcast
8:16 AM 35.6 °F 29.9 °F -13.0 °F 12% 29.94 in 2.0 mi East 6.9 mph - N/A   Overcast
8:36 AM 35.6 °F 30.7 °F -13.0 °F 12% 29.93 in 4.0 mi East 5.8 mph - N/A   Overcast
8:56 AM 37.4 °F 32.8 °F -13.0 °F 11% 29.93 in 3.0 mi ENE 5.8 mph - N/A   Overcast
9:16 AM 37.4 °F 32.1 °F -13.0 °F 11% 29.93 in 2.5 mi ENE 6.9 mph - N/A   Overcast
9:36 AM 37.4 °F 33.8 °F -11.2 °F 12% 29.92 in 2.0 mi ENE 4.6 mph - N/A   Overcast
9:56 AM 37.4 °F 32.8 °F -13.0 °F 11% 29.92 in 2.5 mi ENE 5.8 mph - N/A   Overcast
10:16 AM 37.4 °F 32.8 °F -13.0 °F 11% 29.92 in 5.0 mi East 5.8 mph - N/A   Overcast
10:36 AM 37.4 °F 32.8 °F -11.2 °F 12% 29.91 in 5.0 mi East 5.8 mph - N/A   Overcast
10:56 AM 37.4 °F 33.8 °F -11.2 °F 12% 29.90 in 6.0 mi East 4.6 mph - N/A   Overcast
11:16 AM 35.6 °F 31.7 °F -11.2 °F 13% 29.90 in 10.0 mi ESE 4.6 mph - N/A   Overcast
11:36 AM 37.4 °F 33.8 °F -13.0 °F 11% 29.90 in 10.0 mi ESE 4.6 mph - N/A   Overcast
11:56 AM 37.4 °F 34.9 °F -11.2 °F 12% 29.90 in 10.0 mi ESE 3.5 mph - N/A   Overcast
12:16 PM 37.4 °F 34.9 °F -11.2 °F 12% 29.89 in 10.0 mi SE 3.5 mph - N/A   Overcast
12:36 PM 37.4 °F 32.8 °F -11.2 °F 12% 29.88 in 10.0 mi East 5.8 mph - N/A   Overcast
12:56 PM 37.4 °F 31.4 °F -11.2 °F 12% 29.87 in 10.0 mi East 8.1 mph - N/A   Overcast
1:16 PM 37.4 °F 32.1 °F -11.2 °F 12% 29.87 in 10.0 mi ESE 6.9 mph - N/A   Overcast
1:36 PM 37.4 °F 32.8 °F -11.2 °F 12% 29.87 in 10.0 mi SE 5.8 mph - N/A   Overcast
1:56 PM 39.2 °F - -11.2 °F 11% 29.86 in 10.0 mi Calm Calm - N/A   Overcast
2:16 PM 39.2 °F - -11.2 °F 11% 29.86 in 10.0 mi Calm Calm - N/A   Overcast
2:36 PM 39.2 °F - -11.2 °F 11% 29.85 in 9.0 mi Calm Calm - N/A   Overcast
2:56 PM 37.4 °F 33.8 °F -11.2 °F 12% 29.84 in 10.0 mi WNW 4.6 mph - N/A   Overcast
3:16 PM 37.4 °F 32.1 °F -11.2 °F 12% 29.84 in 10.0 mi WNW 6.9 mph - N/A   Overcast
3:36 PM 37.4 °F 32.1 °F -11.2 °F 12% 29.84 in 10.0 mi WNW 6.9 mph - N/A   Overcast
3:56 PM 37.4 °F 32.8 °F -11.2 °F 12% 29.84 in 10.0 mi WNW 5.8 mph - N/A   Overcast
4:16 PM 35.6 °F 29.9 °F -11.2 °F 13% 29.84 in 7.0 mi WNW 6.9 mph - N/A   Overcast
4:36 PM 35.6 °F 31.7 °F -13.0 °F 12% 29.84 in 4.0 mi WNW 4.6 mph - N/A   Overcast
4:56 PM 35.6 °F 29.9 °F -11.2 °F 13% 29.84 in 2.5 mi NW 6.9 mph - N/A   Overcast
5:16 PM 35.6 °F 32.8 °F -13.0 °F 12% 29.85 in 3.0 mi NNW 3.5 mph - N/A   Overcast
5:36 PM 35.6 °F 32.8 °F -13.0 °F 12% 29.85 in 8.0 mi WNW 3.5 mph - N/A   Overcast
5:56 PM 35.6 °F - -13.0 °F 12% 29.85 in 10.0 mi Calm Calm - N/A   Overcast
6:16 PM 35.6 °F - -13.0 °F 12% 29.85 in 6.0 mi Calm Calm - N/A   Overcast
6:36 PM 35.6 °F - -13.0 °F 12% 29.85 in 7.0 mi Calm Calm - N/A   Overcast
6:56 PM 35.6 °F 31.7 °F -13.0 °F 12% 29.85 in 10.0 mi SSW 4.6 mph - N/A   Overcast
7:16 PM 35.6 °F 32.8 °F -13.0 °F 12% 29.85 in 10.0 mi SW 3.5 mph - N/A   Overcast
7:36 PM 35.6 °F - -13.0 °F 12% 29.86 in 10.0 mi Calm Calm - N/A   Overcast
7:56 PM 35.6 °F 30.7 °F -13.0 °F 12% 29.87 in 10.0 mi SW 5.8 mph - N/A   Overcast
8:16 PM 35.6 °F 30.7 °F -13.0 °F 12% 29.87 in 10.0 mi SSW 5.8 mph - N/A   Overcast
8:36 PM 35.6 °F 31.7 °F -13.0 °F 12% 29.87 in 10.0 mi SW 4.6 mph - N/A   Overcast
8:56 PM 35.6 °F - -13.0 °F 12% 29.88 in 10.0 mi Calm Calm - N/A   Overcast
9:16 PM 35.6 °F - -13.0 °F 12% 29.88 in 9.0 mi Calm Calm - N/A   Overcast
9:36 PM 35.6 °F 28.0 °F -13.0 °F 12% 29.88 in 8.0 mi West 10.4 mph - N/A   Overcast
9:56 PM 35.6 °F 31.7 °F -14.8 °F 11% 29.88 in 10.0 mi NW 4.6 mph - N/A   Overcast
10:16 PM 35.6 °F 30.7 °F - N/A% 29.89 in 4.0 mi NW 5.8 mph - N/A   Overcast
10:36 PM 35.6 °F 29.9 °F -13.0 °F 12% 29.89 in 7.0 mi WNW 6.9 mph - N/A   Overcast
10:56 PM 35.6 °F 29.2 °F -13.0 °F 12% 29.89 in 7.0 mi WNW 8.1 mph - N/A   Overcast
11:16 PM 35.6 °F 29.2 °F -13.0 °F 12% 29.89 in 9.0 mi WNW 8.1 mph - N/A   Mostly Cloudy
11:36 PM 35.6 °F 27.5 °F -13.0 °F 12% 29.89 in 10.0 mi WNW 11.5 mph - N/A   Overcast
11:56 PM 35.6 °F 28.0 °F -13.0 °F 12% 29.89 in 10.0 mi WNW 10.4 mph - N/A   Overcast